Weather Roundup
Issued by NWS Chicago, IL

Home | Current Version | Previous Version | Text Only | Print | Product List | Glossary Off
Versions: 1 2 3 4 5 6 7 8 9 10 11 12 13 14 15 16 17 18 19 20 21 22 23 24 25 26 27 28 29 30 31 32 33 34 35 36 37 38 39 40 41 42 43 44 45 46 47 48 49 50

000
NZUS59 KLOT 250610
HRRLOT

CHICAGO AREA WEATHER ROUNDUP
NATIONAL WEATHER SERVICE CHICAGO/ROMEOVILLE IL
1200 AM CST SUN JAN 25 2015

NOTE: "FAIR" INDICATES FEW OR NO CLOUDS BELOW 12,000 FEET WITH NO
SIGNIFICANT WEATHER AND/OR OBSTRUCTIONS TO VISIBILITY.

* THESE STATIONS ARE NOT UNDER NWS QUALITY CONTROL. THEY ALSO MAY NOT
  REPORT WEATHER SUCH AS PRECIPITATION OR FOG.

ILZ005-006-012>014-019>023-250700-
NORTHEAST ILLINOIS

CITY           SKY/WX    TMP DP  RH WIND       PRES   REMARKS
OHARE          CLOUDY    32  29  88 NE6       29.67S WCI  26
6HR MIN TEMP:  31; 6HR MAX TEMP:  33;

MIDWAY         CLOUDY    35  31  85 E5        29.68S WCI  31
6HR MIN TEMP:  35; 6HR MAX TEMP:  37;

AURORA         CLOUDY    33  29  85 E8        29.66F FOG     WCI  26
6HR MIN TEMP:  30; 6HR MAX TEMP:  33;

LANSING*       MOCLDY    32  32  99 NE5       29.68F FOG     WCI  28
JOLIET*        MOCLDY    30  30  97 CALM      29.67S FOG
WAUKEGAN       PTCLDY    28  26  92 CALM      29.67S FOG
6HR MIN TEMP:  28; 6HR MAX TEMP:  33;

DUPAGE AIRPORT PTCLDY    32  29  88 E6        29.66F WCI  26
6HR MIN TEMP:  29; 6HR MAX TEMP:  33;

WHEELING       CLOUDY    32  29  88 N6        29.69S FOG     WCI  26
6HR MIN TEMP:  31; 6HR MAX TEMP:  35;

KANKAKEE*      PTCLDY    30  29  97 E3        29.67F FOG
MORRIS*        PTCLDY    34  34 100 NE3       29.65F FOG
LEWIS AIRPORT* MOCLDY    32  32 100 E6        29.67S FOG     WCI  26
NORTHERLY IS     N/A     33  30  89 NE5         N/A  WCI  29
$$

WIZ051-052-058>065-066-070>072-250700-
SOUTHEAST WISCONSIN

CITY           SKY/WX    TMP DP  RH WIND       PRES   REMARKS
MILWAUKEE      CLOUDY    34  29  82 NE16G25   29.69R WCI  24
6HR MIN TEMP:  34; 6HR MAX TEMP:  36;

KENOSHA*       MOCLDY    31  30  96 CALM      29.67S
RACINE*        CLOUDY    34  29  82 NW3       29.69S
BURLINGTON     CLEAR     27  27  99 CALM      29.67S FOG
WAUKESHA       CLOUDY    32  30  93 NE14      29.68S WCI  22
WEST BEND      MIX PCPN  30  27  86 NE13G22   29.69S WCI  20
$$

INZ001>003-010>013-019-020-250700-
NORTHWEST INDIANA

CITY           SKY/WX    TMP DP  RH WIND       PRES   REMARKS
GARY*          MOCLDY    33  29  86 NE3       29.69S FOG
6HR MIN TEMP:  32; 6HR MAX TEMP:  39;

MICHIGAN CITY* NOT AVBL
RENSSELAER*    NOT AVBL
VALPARAISO     FOG       30  29  96 NE5       29.68F VSB 1/4 WCI  25
$$

LMZ740>746-250700-
SOUTHERN LAKE MICHIGAN

STATION/POSITION TIME  SKY/WX   TEMP WIND        PRES    VSBY
                                AIR  DIR/SP/G
                 (UTC)          (F)  (DEG/KT/KT) (MB)    (MI)
HARRISON CRIB    0600            32   10/  5/  6   N/A
BURNHAM HARBOR   0600            33   10/  4/  9   N/A
CALUMET HARBOR   0600            33   30/  4/  6   N/A
BURNS HARBOR     NOT AVBL
MICHIGAN CITY    0600            35  170/  1/  1   N/A
$$

ABBREVIATIONS USED IN REMARKS
   TC - TEMPERATURE IN CELSIUS
  WCI - WIND CHILL INDEX
   HX - HEAT INDEX
  VSB - VISIBILITY
$$



USA.gov is the U.S. government's official web portal to all federal, state and local government web resources and services.